EW9525 Weather Reports


time (UTC)temp
C
wind
direction
speed
KPH
gust
KPH
rain 1hr
cm
rain 24hr
cm
rain mn
cm
humidity
%
barometer
mb
20260508231542 23 274 12.9 22.5 0.00 0.00 0.00 26 1007.5
20260508230042 22 283 14.5 25.7 0.00 0.00 0.00 26 1007.7
20260508224541 23 284 11.3 24.1 0.00 0.00 0.00 28 1007.6
20260508223046 23 281 20.9 30.6 0.00 0.00 0.00 26 1007.5
20260508221541 22 268 12.9 19.3 0.00 0.00 0.00 27 1007.7
20260508220039 22 267 11.3 24.1 0.00 0.00 0.00 28 1007.8
20260508214546 23 248 12.9 24.1 0.00 0.00 0.00 26 1007.9
20260508213037 23 274 19.3 27.4 0.00 0.00 0.00 24 1007.9
20260508211535 23 273 9.7 20.9 0.00 0.00 0.00 28 1008.1
20260508210034 22 277 11.3 22.5 0.00 0.00 0.00 29 1008.4
20260508204536 22 294 14.5 20.9 0.00 0.00 0.00 29 1008.4
20260508203031 22 297 8.0 22.5 0.00 0.00 0.00 28 1008.6
20260508201530 23 304 12.9 24.1 0.00 0.00 0.00 27 1008.7
20260508200031 23 281 11.3 19.3 0.00 0.00 0.00 32 1008.9
20260508194527 22 298 9.7 22.5 0.00 0.00 0.00 27 1009.0
20260508193025 22 261 14.5 27.4 0.00 0.00 0.00 32 1009.0
20260508191528 22 278 17.7 29.0 0.00 0.00 0.00 28 1009.1
20260508190026 21 285 14.5 24.1 0.00 0.00 0.00 30 1009.3
20260508184521 21 279 9.7 17.7 0.00 0.00 0.00 34 1009.4
20260508183020 21 271 9.7 27.4 0.00 0.00 0.00 35 1009.5
20260508181518 21 274 19.3 27.4 0.00 0.00 0.00 31 1009.7
20260508180020 21 290 6.4 27.4 0.00 0.00 0.00 33 1009.8
20260508174516 21 304 16.1 30.6 0.00 0.00 0.00 36 1009.9
20260508173013 20 263 6.4 20.9 0.00 0.00 0.00 34 1010.1
20260508171514 20 274 11.3 25.7 0.00 0.00 0.00 33 1010.3
20260508170010 20 278 12.9 24.1 0.00 0.00 0.00 34 1010.4
20260508164508 19 310 9.7 22.5 0.00 0.00 0.00 32 1010.5
20260508163005 19 304 9.7 20.9 0.00 0.00 0.00 34 1010.6
20260508161503 18 291 11.3 19.3 0.00 0.00 0.00 35 1010.5
20260508160003 18 283 11.3 24.1 0.00 0.00 0.00 31 1010.6
20260508154600 18 278 11.3 19.3 0.00 0.00 0.00 34 1010.6
20260508153057 17 259 16.1 24.1 0.00 0.00 0.00 35 1010.7
20260508151555 16 266 12.9 20.9 0.00 0.00 0.00 42 1010.8
20260508150048 15 281 11.3 17.7 0.00 0.00 0.00 45 1010.8
20260508144547 13 278 9.7 16.1 0.00 0.00 0.00 49 1010.7
20260508143057 13 278 9.7 19.3 0.00 0.00 0.00 53 1010.6
20260508141552 12 281 9.7 16.1 0.00 0.00 0.00 56 1010.5
20260508140044 11 289 8.0 14.5 0.00 0.00 0.00 59 1010.5
20260508134542 11 278 8.0 16.1 0.00 0.00 0.00 62 1010.5
20260508133053 11 270 9.7 16.1 0.00 0.00 0.00 61 1010.5
20260508131540 10 269 8.0 12.9 0.00 0.00 0.00 65 1010.4
20260508130036 10 274 8.0 16.1 0.00 0.00 0.00 65 1010.1
20260508124533 10 284 8.0 14.5 0.00 0.00 0.00 65 1009.9
20260508123032 10 283 9.7 17.7 0.00 0.00 0.00 64 1009.7
20260508121551 10 264 9.7 17.7 0.00 0.00 0.00 64 1009.2
20260508120029 10 266 9.7 14.5 0.00 0.00 0.00 65 1008.9
20260508114525 10 276 6.4 16.1 0.00 0.00 0.00 65 1008.8
20260508113024 11 266 9.7 17.7 0.00 0.00 0.00 64 1008.8
20260508111523 11 278 11.3 20.9 0.00 0.00 0.00 63 1008.6
20260508110022 12 269 12.9 24.1 0.00 0.00 0.00 63 1008.6
20260508104525 12 262 14.5 25.7 0.00 0.00 0.00 62 1008.8
20260508103021 13 261 17.7 27.4 0.00 0.00 0.00 64 1008.8
20260508101520 13 259 14.5 24.1 0.00 0.00 0.00 65 1008.7
20260508100021 12 251 11.3 22.5 0.00 0.00 0.00 65 1008.7
20260508094518 13 270 8.0 17.7 0.00 0.00 0.00 66 1008.9
20260508093023 12 258 8.0 16.1 0.00 0.00 0.00 67 1008.9
20260508091516 12 239 8.0 14.5 0.00 0.00 0.00 71 1009.2
20260508090017 11 218 3.2 8.0 0.00 0.00 0.00 74 1009.3
20260508084516 11 219 0.0 14.5 0.00 0.00 0.00 74 1009.3
20260508083041 11 207 4.8 11.3 0.00 0.00 0.00 76 1009.4
20260508081514 9 188 6.4 11.3 0.00 0.00 0.00 80 1009.3
20260508080011 9 191 8.0 12.9 0.00 0.00 0.00 77 1009.1
20260508074507 11 203 3.2 11.3 0.00 0.00 0.00 72 1008.8
20260508073006 11 231 4.8 12.9 0.00 0.00 0.00 70 1008.7
20260508071503 12 235 6.4 11.3 0.00 0.00 0.00 68 1008.9
20260508070004 12 257 9.7 17.7 0.00 0.00 0.00 66 1008.7
20260508064504 12 227 8.0 14.5 0.00 0.00 0.00 67 1008.9
20260508063100 11 279 4.8 9.7 0.00 0.00 0.00 71 1008.8
20260508061559 12 264 8.0 14.5 0.00 0.00 0.00 66 1009.0
20260508054555 13 228 4.8 11.3 0.00 0.00 0.00 63 1009.4
20260508053048 13 261 6.4 14.5 0.00 0.00 0.00 61 1009.3
20260508053017 13 252 6.4 14.5 0.00 0.00 0.00 61 1009.3
20260508051545 13 239 6.4 11.3 0.00 0.00 0.00 61 1009.3
20260508050046 13 238 4.8 12.9 0.00 0.00 0.00 58 1009.3
20260508044541 14 276 8.0 12.9 0.00 0.00 0.00 56 1009.3
20260508043041 16 264 6.4 16.1 0.00 0.00 0.00 51 1009.3
20260508041540 16 224 6.4 11.3 0.00 0.00 0.00 49 1009.1
20260508040039 15 270 3.2 8.0 0.00 0.00 0.00 53 1009.2
20260508034539 13 191 3.2 4.8 0.00 0.00 0.00 56 1009.2
20260508033038 13 193 1.6 4.8 0.00 0.00 0.00 56 1009.2
20260508031538 14 155 3.2 6.4 0.00 0.00 0.00 52 1009.1
20260508030038 15 186 3.2 8.0 0.00 0.00 0.00 47 1009.2
20260508024548 15 183 3.2 4.8 0.00 0.00 0.00 44 1008.9
20260508023038 17 177 3.2 4.8 0.00 0.00 0.00 40 1008.9
20260508021536 17 200 0.0 0.0 0.00 0.00 0.00 36 1008.7
20260508020039 19 260 0.0 0.0 0.00 0.00 0.00 33 1008.6
20260508014536 20 259 0.0 1.6 0.00 0.00 0.00 32 1008.6
20260508013035 20 269 1.6 3.2 0.00 0.00 0.00 34 1008.6
20260508011547 20 276 0.0 1.6 0.00 0.00 0.00 33 1008.4
20260508010034 20 281 1.6 4.8 0.00 0.00 0.00 35 1008.5
20260508004549 21 269 3.2 6.4 0.00 0.00 0.00 35 1008.5
20260508003037 22 249 4.8 6.4 0.00 0.00 0.00 32 1008.5
20260508001537 22 268 1.6 12.9 0.00 0.00 0.00 34 1008.6
20260508000030 22 263 4.8 11.3 0.00 0.00 0.00 33 1008.6
20260507234530 21 262 6.4 14.5 0.00 0.00 0.00 34 1008.7
20260507233029 22 285 9.7 14.5 0.00 0.00 0.00 33 1008.9